College Station, TX

12:10 PM CDT on April 25, 2017 (GMT -0500)
Easterwood

Weather History for KCLL - September, 2013

Change the Weather History Date:

Thursday, September 12, 2013

  Actual Average Record
Temperature  
Mean Temperature 85 °F 81 °F  
Max Temperature 98 °F 92 °F 103 °F (2011)
Min Temperature 72 °F 71 °F 50 °F (1940)
Degree Days  
Heating Degree Days 0 0  
Month to date heating degree days 0 0  
Since 1 July heating degree days 0 0  
Cooling Degree Days 20 16  
Month to date cooling degree days 255 210  
Year to date cooling degree days 2732 2556  
Growing Degree Days 34 (Base 50)    
Moisture  
Dew Point 67 °F    
Average Humidity 60    
Maximum Humidity 87    
Minimum Humidity 33    
Precipitation  
Precipitation 0.00 in 0.11 in 4.26 in (2014)
Month to date precipitation 0.10 1.34  
Year to date precipitation 19.83 26.86  
Sea Level Pressure  
Sea Level Pressure 29.99 in    
Wind  
Wind Speed 4 mph (ESE)    
Max Wind Speed 18 mph    
Max Gust Speed 22 mph    
Visibility 10 miles    
Events      
T = Trace of Precipitation, MM = Missing Value Source: NWS Daily Summary

Daily Weather History Graph

Daily Weather History Graph

Search for Another Location

Airport or City:

Trip Planner

Search our weather history database for the weather conditions in past years. The results will help you decide how hot, cold, wet, or windy it might be!

Date:

Astronomy

Sep. 12, 2013 Rise Set
Actual Time 7:08 AM CDT 7:34 PM CDT
Civil Twilight 6:44 AM CDT 7:58 PM CDT
Nautical Twilight 6:15 AM CDT 8:26 PM CDT
Astronomical Twilight 5:47 AM CDT 8:55 PM CDT
Moon 2:10 PM CDT (9/12) No Moon Set
Length of Visible Light 13h 14m
Length of Day
12h 26m
Waxing Crescent, 50% of the Moon is Illuminated
Sep 12
Waxing Crescent
Sep 12
First Quarter
Sep 19
Full
Sep 26
Last Quarter
Oct 4
New

Hourly Weather History & Observations

Time (CDT) Temp. Heat Index Dew Point Humidity Pressure Visibility Wind Dir Wind Speed Gust Speed Precip Events Conditions
12:53 AM 78.1 °F - 66.9 °F 68% 30.02 in 10.0 mi Calm Calm - N/A   Clear
1:53 AM 78.1 °F - 68.0 °F 71% 30.02 in 10.0 mi Calm Calm - N/A   Clear
2:53 AM 75.9 °F - 69.1 °F 79% 30.02 in 10.0 mi Calm Calm - N/A   Clear
3:53 AM 75.9 °F - 69.1 °F 79% 30.02 in 10.0 mi Calm Calm - N/A   Clear
4:53 AM 73.9 °F - 69.1 °F 85% 30.02 in 10.0 mi Calm Calm - N/A   Clear
5:53 AM 73.0 °F - 69.1 °F 87% 30.02 in 10.0 mi Calm Calm - N/A   Clear
6:53 AM 73.9 °F - 69.1 °F 85% 30.03 in 10.0 mi Calm Calm - N/A   Clear
7:53 AM 75.0 °F - 70.0 °F 84% 30.04 in 10.0 mi Calm Calm - N/A   Clear
8:53 AM 80.1 °F 83.6 °F 71.1 °F 74% 30.04 in 10.0 mi Variable 3.5 mph - N/A   Clear
9:53 AM 84.0 °F 89.6 °F 72.0 °F 67% 30.06 in 10.0 mi NNE 4.6 mph - N/A   Clear
10:53 AM 87.1 °F 92.8 °F 71.1 °F 59% 30.06 in 10.0 mi Variable 3.5 mph - N/A   Clear
11:53 AM 90.0 °F 94.5 °F 69.1 °F 50% 30.04 in 10.0 mi Variable 5.8 mph - N/A   Partly Cloudy
12:53 PM 89.1 °F 92.9 °F 68.0 °F 50% 30.02 in 10.0 mi Calm Calm - N/A   Mostly Cloudy
1:53 PM 91.9 °F 95.4 °F 66.9 °F 44% 30.00 in 10.0 mi SE 10.4 mph - N/A   Mostly Cloudy
2:53 PM 95.0 °F 97.0 °F 64.0 °F 36% 29.96 in 10.0 mi SE 9.2 mph - N/A   Clear
3:53 PM 96.1 °F 98.3 °F 64.0 °F 35% 29.93 in 10.0 mi ENE 8.1 mph 17.3 mph N/A   Partly Cloudy
4:53 PM 96.1 °F 97.3 °F 63.0 °F 33% 29.90 in 10.0 mi East 9.2 mph - N/A   Clear
5:53 PM 96.1 °F 96.9 °F 62.1 °F 32% 29.89 in 10.0 mi East 8.1 mph - N/A   Clear
6:53 PM 91.0 °F 91.9 °F 63.0 °F 39% 29.90 in 8.0 mi SE 6.9 mph - N/A   Overcast
7:53 PM 90.0 °F 90.6 °F 63.0 °F 40% 29.91 in 10.0 mi East 3.5 mph - N/A   Clear
8:53 PM 87.1 °F 87.8 °F 63.0 °F 44% 29.93 in 10.0 mi East 3.5 mph - N/A   Clear
9:53 PM 84.0 °F 85.4 °F 64.0 °F 51% 29.94 in 10.0 mi South 6.9 mph - N/A   Clear
10:53 PM 82.0 °F 83.8 °F 64.9 °F 56% 29.95 in 10.0 mi South 4.6 mph - N/A   Clear
11:53 PM 80.1 °F 82.1 °F 66.0 °F 62% 29.95 in 10.0 mi South 3.5 mph - N/A   Clear